CAPE
9 7 9 7 3 7 5 4 3 4 4 3 2 5 14 4 6 2 0 0 0 0 0 0 0 0 0 0 0 0 3 0 0 0 0 0 0 0 0 0 0 0 0 0 0
10 10 12 9 6 7 7 5 4 3 3 2 5 7 4 1 1 1 0 0 0 5 0 0 0 0 0 0 0 0 0 0 0 0 0 0 0 0 0 0 0 0 0 0 0
15 14 12 13 11 10 10 6 3 2 1 4 4 5 0 0 0 0 0 0 1 18 0 5 0 0 0 0 0 0 0 0 0 0 0 0 0 0 0 0 0 0 0 0 0
17 8 7 8 8 7 6 15 6 0 0 1 4 3 2 0 0 0 0 0 8 0 0 0 0 0 0 0 0 0 0 0 0 0 0 0 0 0 0 0 0 0 0 0 0
14 14 9 8 9 5 5 12 4 0 0 0 7 10 0 0 0 0 0 0 0 0 0 0 0 0 0 0 0 0 0 0 0 0 0 0 0 0 0 0 0 0 0 0 0
12 12 11 10 10 8 7 7 0 0 0 0 10 10 0 0 0 0 0 0 0 0 0 0 0 0 0 0 0 0 0 0 0 0 0 0 0 0 0 0 0 0 0 0 0
9 10 10 8 8 8 7 4 0 0 0 1 8 2 0 0 0 0 0 0 0 0 0 0 0 0 0 0 0 0 0 0 0 0 0 0 0 0 0 0 0 0 0 0 0
10 9 8 5 3 2 2 1 0 0 0 7 15 0 0 0 0 0 0 0 0 0 0 0 0 0 0 0 0 0 0 0 0 0 0 0 0 0 0 0 0 0 0 0 0
12 9 7 6 2 1 0 0 0 0 4 15 0 0 0 0 0 0 0 0 0 0 0 0 0 0 0 0 0 0 0 0 0 0 0 0 0 0 0 0 0 0 0 0 0
13 13 8 6 2 0 0 0 0 2 2 1 0 0 0 0 0 0 0 0 0 0 0 0 0 0 0 0 0 0 0 0 0 0 0 0 0 0 0 0 0 0 0 0 0
16 12 8 8 0 0 0 0 0 0 0 0 0 0 0 0 0 0 0 0 0 0 0 0 0 0 0 0 0 0 0 0 0 0 0 0 0 0 0 0 0 0 0 0 0
15 11 6 5 0 0 0 0 0 0 0 0 0 0 0 0 0 0 0 0 0 0 0 0 0 0 0 0 0 0 0 0 0 0 0 0 0 0 0 1 0 0 0 0 0
26 12 3 0 0 0 0 0 0 0 0 0 0 0 0 0 0 0 0 0 0 0 0 0 0 0 0 0 0 0 0 0 0 0 0 0 0 0 1 2 2 0 0 0 0
17 2 0 0 0 0 0 0 0 0 0 0 0 0 0 0 0 0 0 0 0 0 0 0 0 0 0 0 0 0 0 0 0 0 1 0 11 0 0 2 3 2 0 0 0
13 0 0 0 0 0 0 0 0 0 0 0 0 0 0 0 0 0 0 0 0 0 0 0 0 0 0 0 0 0 0 0 0 0 3 0 12 5 0 2 2 3 2 0 0
15 0 0 0 0 0 0 0 0 0 0 0 0 0 0 0 0 0 0 0 0 0 0 0 0 0 0 0 0 0 0 0 0 7 15 0 6 32 0 0 1 4 2 2 2
4 0 0 0 0 0 0 0 5 5 0 0 0 0 0 0 0 0 0 0 0 0 0 0 4 0 0 0 0 0 24 58 55 41 12 0 9 6 0 0 1 2 5 4 2
0 0 0 0 0 0 0 1 0 0 0 0 0 0 0 0 0 0 0 0 0 0 0 0 6 2 0 2 6 2 27 49 33 58 38 0 12 0 2 3 6 4 3 7 9
0 0 0 0 0 0 0 0 0 0 0 0 0 0 0 0 0 0 0 0 0 0 0 0 1 0 1 1 5 23 19 5 6 0 15 2 0 3 8 5 5 4 4 5 8
0 0 0 0 0 0 0 0 0 0 0 0 0 0 0 0 0 0 0 0 0 0 0 0 0 0 3 0 0 5 6 19 22 19 39 0 0 1 6 5 6 7 6 6 6
0 0 0 0 0 0 0 0 0 0 0 0 0 0 0 0 0 0 0 0 0 0 0 0 0 0 0 0 1 1 6 3 2 2 19 13 3 1 3 5 5 6 6 7 9
0 0 0 0 0 0 0 0 0 0 0 0 0 0 0 0 0 0 0 0 0 0 4 2 0 0 0 0 0 0 0 2 7 2 0 0 2 1 0 9 6 6 6 5 3
0 0 0 0 5 0 0 0 0 0 0 0 0 0 0 0 0 0 0 0 0 0 4 5 1 0 0 0 0 0 0 0 0 0 0 3 3 2 1 12 9 7 8 5 4
0 1 0 0 0 0 0 0 0 0 0 0 0 0 0 0 0 0 0 0 0 0 0 0 0 0 2 2 0 1 0 0 0 5 0 1 0 0 2 3 4 6 7 8 3
0 1 0 7 0 0 0 0 0 0 0 0 0 0 0 0 0 0 0 0 0 0 0 0 0 0 0 0 0 0 0 0 0 0 0 0 0 0 1 3 3 3 3 2 2
0 2 3 2 0 0 0 0 0 0 0 0 0 0 0 0 0 0 0 0 0 0 0 0 2 0 0 0 0 0 0 0 0 0 0 0 0 0 0 1 2 1 5 3 1
2 0 0 5 0 0 0 0 0 0 0 0 0 0 0 0 0 0 0 0 0 0 0 0 0 0 1 0 0 0 1 0 0 0 0 0 0 0 2 4 3 0 0 2 3
CIN
0 0 0 0 0 0 0 0 0 0 0 0 0 0 -3 -3 -4 0 0 0 0 0 0 0 0 0 0 0 0 0 0 0 0 0 0 0 0 0 0 0 0 0 0 0 0
0 0 0 0 0 0 0 0 0 0 0 0 0 -2 -1 -1 0 0 0 0 0 0 0 0 0 0 0 0 0 0 0 0 0 0 0 0 0 0 0 0 0 0 0 0 0
0 0 0 0 0 0 0 0 0 0 0 0 0 0 0 -1 0 0 0 0 0 0 0 0 0 0 0 0 0 0 0 0 0 0 0 0 0 0 0 0 0 0 0 0 0
0 0 0 0 0 0 0 0 0 0 0 0 0 0 -2 0 0 0 0 0 -1 0 0 0 0 0 0 0 0 0 0 0 0 0 0 0 0 0 0 0 0 0 0 0 0
0 0 0 0 0 0 0 0 0 0 0 0 0 0 0 0 0 0 0 0 0 0 0 0 0 0 0 0 0 0 0 0 0 0 0 0 0 0 0 0 0 0 0 0 0
0 0 0 0 0 0 0 0 0 0 0 0 0 0 0 0 0 0 0 0 0 0 0 0 0 0 0 0 0 0 0 0 0 0 0 0 0 0 0 0 0 0 0 0 0
0 0 0 0 0 0 0 0 0 0 0 0 0 0 0 0 0 0 0 0 0 0 0 0 0 0 0 0 0 0 0 0 0 0 0 0 0 0 0 0 0 0 0 0 0
0 0 0 0 0 0 0 0 0 0 0 0 0 0 0 0 0 0 0 0 0 0 0 0 0 0 0 0 0 0 0 0 0 0 0 0 0 0 0 0 0 0 0 0 0
0 0 0 0 0 0 0 0 0 0 0 0 0 0 0 0 0 0 0 0 0 0 0 0 0 0 0 0 0 0 0 0 0 0 0 0 0 0 0 0 0 0 0 0 0
0 0 0 0 0 0 0 0 0 -1 -1 -1 0 0 0 0 0 0 0 0 0 0 0 0 0 0 0 0 0 0 0 0 0 0 0 0 0 0 0 0 0 0 0 0 0
0 0 0 0 0 0 0 0 0 0 0 0 0 0 0 0 0 0 0 0 0 0 0 0 0 0 0 0 0 0 0 0 0 0 0 0 0 0 0 0 0 0 0 0 0
0 0 0 0 0 0 0 0 0 0 0 0 0 0 0 0 0 0 0 0 0 0 0 0 0 0 0 0 0 0 0 0 0 0 0 0 0 0 0 0 0 0 0 0 0
0 0 0 0 0 0 0 0 0 0 0 0 0 0 0 0 0 0 0 0 0 0 0 0 0 0 0 0 0 0 0 0 0 0 0 0 0 0 0 0 0 0 0 0 0
0 0 0 0 0 0 0 0 0 0 0 0 0 0 0 0 0 0 0 0 0 0 0 0 0 0 0 0 0 0 0 0 0 0 0 0 0 0 0 0 0 0 0 0 0
0 0 0 0 0 0 0 0 0 0 0 0 0 0 0 0 0 0 0 0 0 0 0 0 0 0 0 0 0 0 0 0 0 0 0 0 -1 -5 0 0 0 0 0 0 0
0 0 0 0 0 0 0 0 0 0 0 0 0 0 0 0 0 0 0 0 0 0 0 0 0 0 0 0 0 0 0 -1 0 0 0 0 0 0 0 0 0 0 0 0 0
0 0 0 0 0 0 0 0 0 0 0 0 0 0 0 0 0 0 0 0 0 0 0 0 0 0 0 0 0 0 0 0 0 -1 0 0 -1 -8 0 0 0 0 0 0 0
0 0 0 0 0 0 0 0 0 0 0 0 0 0 0 0 0 0 0 0 0 0 0 0 0 0 0 0 0 0 0 0 -1 0 -1 0 0 0 0 0 0 0 0 0 0
0 0 0 0 0 0 0 0 0 0 0 0 0 0 0 0 0 0 0 0 0 0 0 0 0 0 0 0 0 0 -1 0 0 0 0 0 0 0 0 0 0 0 0 0 0
0 0 0 0 0 0 0 0 0 0 0 0 0 0 0 0 0 0 0 0 0 0 0 0 0 0 0 0 0 0 0 0 0 -2 0 0 0 0 0 0 0 0 0 0 0
0 0 0 0 0 0 0 0 0 0 0 0 0 0 0 0 0 0 0 0 0 0 0 0 0 0 0 0 0 0 0 0 0 0 0 -1 0 0 0 0 0 0 0 0 0
0 0 0 0 0 0 0 0 0 0 0 0 0 0 0 0 0 0 0 0 0 0 0 0 0 0 0 0 0 0 0 0 0 0 0 0 0 0 0 0 0 0 0 0 0
0 0 0 0 0 0 0 0 0 0 0 0 0 0 0 0 0 0 0 0 0 0 0 0 0 0 0 0 0 0 0 0 0 0 0 0 0 0 0 0 0 0 0 0 0
0 0 0 0 0 0 0 0 0 0 0 0 0 0 0 0 0 0 0 0 0 0 0 0 0 0 0 0 0 0 0 0 0 0 0 0 0 0 0 0 0 0 0 0 0
0 -1 0 0 0 0 0 0 0 0 0 0 0 0 0 0 0 0 0 0 0 0 0 0 0 0 0 0 0 0 0 0 0 0 0 0 0 0 0 0 0 0 0 0 0
0 0 -1 0 0 0 0 0 0 0 0 0 0 0 0 0 0 0 0 0 0 0 0 0 0 0 0 0 0 0 0 0 0 0 0 0 0 0 0 0 0 0 0 0 0
0 0 0 0 0 0 0 0 0 0 0 0 0 0 0 0 0 0 0 0 0 0 0 0 0 0 0 0 0 0 0 0 0 0 0 0 0 0 0 0 0 0 0 0 -1
Wind_Speed
14 13 12 11 11 11 9 9 9 8 8 7 5 7 5 1 2 4 9 3 3 7 9 10 7 8 6 6 4 3 10 17 22 12 7 4 7 7 2 11 3 1 3 4 7
15 14 13 13 11 11 11 10 9 8 8 7 7 8 3 2 4 9 7 8 8 7 10 15 12 11 7 8 7 12 15 20 8 7 7 6 6 3 5 8 6 4 3 4 8
18 17 16 15 14 13 12 10 10 10 9 8 6 4 2 3 3 5 6 12 10 11 7 7 10 9 10 6 10 10 19 16 4 6 8 10 9 5 6 7 1 4 4 2 5
18 17 16 15 13 14 12 12 11 11 10 8 6 4 8 3 4 3 3 11 6 11 10 10 10 10 10 11 9 10 9 13 5 9 4 7 5 9 10 3 5 8 6 2 6
20 19 17 15 14 12 11 11 10 9 8 7 5 8 5 5 5 3 6 11 7 7 11 10 13 11 12 8 8 13 12 5 11 12 9 4 7 5 2 4 2 2 1 5 7
22 20 17 15 14 11 10 10 9 7 7 6 7 8 3 7 3 4 5 5 5 4 7 8 7 8 7 7 13 1 11 15 13 9 5 15 16 6 4 4 2 4 6 6 8
22 21 18 16 14 11 11 11 8 4 3 8 8 4 4 3 2 5 4 3 3 5 6 5 4 9 6 4 6 5 11 13 11 9 13 13 17 21 4 2 4 7 9 9 9
25 22 20 16 14 12 11 9 7 2 3 6 9 3 4 2 3 3 4 4 3 3 2 5 5 3 5 2 3 6 7 14 10 17 7 14 22 9 2 8 8 8 10 10 9
25 23 21 18 15 13 11 9 4 5 5 7 3 3 2 7 3 3 0 4 5 4 4 7 6 4 5 8 9 10 12 12 11 9 16 16 13 8 2 9 9 9 10 10 10
26 25 23 18 16 14 6 1 6 6 6 4 1 4 3 4 4 4 4 3 2 8 5 4 5 8 8 11 12 13 14 12 12 5 10 16 14 3 3 8 9 9 9 10 10
28 26 23 17 14 4 4 3 4 5 6 6 3 1 5 4 3 6 4 4 4 5 8 6 8 12 17 17 15 9 11 14 9 2 6 14 14 5 4 6 8 9 9 9 8
29 29 22 13 5 5 1 3 3 4 5 11 1 2 4 1 4 7 5 5 6 8 6 5 12 12 7 9 11 13 15 16 6 2 6 6 9 5 5 4 3 6 7 8 8
30 28 17 9 2 1 2 2 1 2 5 3 4 4 3 1 5 6 7 0 2 6 9 11 2 4 9 11 11 15 17 15 14 4 0 6 8 11 5 5 5 4 3 4 5
29 26 14 10 2 1 1 3 2 2 4 5 3 5 3 6 6 3 6 3 2 3 3 6 2 5 10 10 11 14 13 15 13 9 13 9 9 10 12 11 8 6 5 3 3
28 25 10 8 1 0 3 2 3 4 5 5 4 3 6 3 4 7 7 1 0 2 4 2 2 2 6 4 5 9 4 10 14 16 13 10 8 6 9 13 11 9 5 2 1
28 20 9 1 0 2 4 3 4 5 5 4 3 3 4 7 4 2 5 7 2 1 1 2 2 3 4 6 4 4 5 4 7 10 10 19 15 12 8 8 13 10 6 4 3
30 11 4 3 5 6 3 3 4 4 2 4 5 3 7 5 5 6 7 10 5 1 2 1 2 3 4 4 3 4 7 6 8 9 7 8 12 1 4 1 7 10 8 5 4
27 6 6 5 5 2 2 4 5 7 6 3 3 7 5 5 5 6 4 5 9 5 2 4 4 6 6 4 5 5 6 7 11 10 9 5 10 4 3 5 9 8 7 7 6
18 2 3 11 5 3 4 0 5 5 4 3 2 2 3 4 3 3 6 5 5 7 5 4 2 0 2 3 4 3 7 4 5 1 5 4 3 5 7 7 7 8 8 7 7
6 1 11 12 5 2 0 7 4 6 5 3 2 4 3 5 2 3 4 4 3 5 3 2 3 2 3 2 3 5 6 5 5 5 6 3 4 3 9 8 7 7 7 7 7
2 4 15 8 3 5 6 6 5 8 5 6 4 4 5 3 5 4 4 3 4 3 2 2 3 3 2 8 6 5 1 4 3 3 5 2 4 3 4 7 7 7 7 6 7
4 6 14 7 11 4 8 5 5 9 8 7 6 7 5 5 4 3 4 3 4 4 3 3 2 2 4 1 2 3 5 4 4 4 2 3 4 4 4 5 7 8 7 7 7
4 4 8 12 9 9 7 7 10 11 12 6 7 7 5 4 3 4 3 3 5 5 4 2 2 2 4 4 4 4 4 4 4 3 3 5 4 4 2 7 7 8 8 7 7
3 5 5 9 7 7 6 13 5 11 13 7 6 4 2 5 7 4 3 4 2 8 7 1 2 3 4 4 3 3 6 4 4 3 2 4 2 4 5 6 6 6 7 8 7
5 5 3 8 11 11 13 8 15 8 7 12 6 11 4 4 3 4 5 3 3 9 3 3 3 1 2 2 2 5 8 8 5 3 4 5 4 2 8 6 5 4 5 7 6
4 2 4 10 7 14 10 11 12 8 9 6 6 9 11 5 4 3 4 5 4 5 3 3 2 1 3 3 2 8 11 7 5 2 1 3 2 3 4 4 4 4 5 7 7
2 2 2 11 11 7 7 10 9 1 7 7 4 3 8 5 2 3 3 4 4 5 5 4 2 2 3 2 4 4 11 10 6 4 4 7 7 4 5 6 6 5 6 6 7
Wind_Direction
344 342 332 330 322 315 312 304 297 292 283 287 274 274 239 130 264 247 244 215 214 239 146 150 127 136 158 154 154 181 226 239 230 235 222 197 227 202 6 247 222 164 329 50 143
341 335 325 321 313 306 307 310 298 289 285 276 273 268 253 149 243 244 234 217 216 169 172 170 165 160 169 180 182 203 222 239 239 270 235 197 235 242 217 202 209 196 117 75 155
344 335 329 325 319 309 309 316 304 294 280 265 259 250 134 116 247 207 208 211 199 174 171 178 160 176 193 177 184 213 238 230 220 231 239 244 240 233 244 231 323 249 5 128 169
345 337 331 323 314 308 305 310 302 295 280 260 238 162 126 175 268 106 28 167 182 159 141 153 173 184 209 205 200 237 245 254 239 212 186 220 252 234 243 311 333 303 288 210 164
348 342 334 326 317 307 300 305 301 294 280 264 222 153 162 206 234 122 53 105 125 158 170 175 183 196 197 205 205 236 240 231 243 245 242 241 238 275 147 2 355 330 150 159 135
352 345 341 336 328 317 305 308 301 300 288 223 186 150 226 233 97 134 121 111 130 146 159 186 209 208 216 217 213 204 243 250 245 230 222 240 246 225 144 356 98 126 111 123 121
351 348 341 335 331 324 314 313 307 316 222 186 174 178 242 290 129 129 122 103 142 163 167 187 164 190 181 209 230 250 249 244 227 234 239 230 248 235 55 201 146 134 120 105 90
349 346 340 332 326 316 310 305 301 265 191 172 144 186 264 90 108 145 141 111 106 113 117 146 179 166 217 120 184 223 230 240 228 214 212 200 246 178 357 194 170 150 131 114 88
347 342 336 325 321 313 304 294 236 174 170 141 141 252 217 132 161 114 1 140 125 110 93 119 159 199 184 220 236 214 249 222 246 219 217 207 240 79 2 192 172 156 144 128 113
346 340 334 324 319 312 311 67 109 134 114 126 93 243 200 178 119 90 40 116 125 131 119 154 171 201 205 200 222 234 232 238 240 172 222 214 227 113 102 185 169 155 148 142 127
345 337 329 321 326 359 144 148 168 191 217 205 183 302 115 99 70 57 15 130 125 188 196 193 206 207 215 223 242 270 253 258 247 183 242 234 233 166 139 163 170 161 155 144 125
342 337 328 317 346 87 161 241 22 8 265 221 229 100 88 263 121 41 359 196 193 210 154 186 234 237 261 248 240 242 248 248 235 191 236 195 201 184 188 153 185 169 161 149 142
344 344 347 342 86 83 16 30 314 211 254 121 126 87 52 79 62 23 359 84 212 200 207 235 94 41 217 223 227 234 240 243 242 161 150 185 218 193 177 176 165 153 155 148 147
347 348 351 341 211 2 80 324 224 241 253 115 97 52 14 130 76 8 12 339 148 250 216 258 354 272 241 241 226 247 229 241 243 217 241 204 255 199 182 183 194 188 165 160 155
348 345 359 17 28 253 331 269 205 236 262 46 68 336 56 90 112 48 28 326 38 145 245 104 352 336 247 264 252 254 186 227 224 220 232 203 235 172 179 206 191 190 187 171 165
345 340 345 14 48 12 287 231 229 212 220 108 50 32 113 49 62 21 36 43 40 266 174 341 69 10 335 304 272 312 197 198 225 223 226 221 214 211 182 227 183 174 177 155 134
346 356 47 343 342 331 287 237 209 249 63 68 46 62 84 49 63 31 54 45 26 276 27 339 49 24 0 287 200 230 186 212 208 202 232 232 202 125 42 6 205 167 158 142 130
350 22 49 38 341 351 253 228 242 52 47 34 53 77 71 15 49 45 90 76 45 9 36 338 175 1 358 6 334 229 251 245 242 216 201 163 218 105 54 96 119 133 136 122 103
348 34 40 349 334 308 259 38 33 26 5 20 103 83 89 68 82 86 46 47 24 7 9 326 155 48 299 338 307 105 226 9 308 27 246 138 98 135 134 119 132 131 131 119 102
337 17 17 338 333 286 301 80 66 24 360 350 64 8 88 27 79 68 31 19 24 21 299 93 284 10 19 304 90 318 346 232 208 249 237 134 259 84 174 149 138 131 123 116 114
27 96 355 349 289 47 54 63 69 30 16 23 54 82 63 60 46 64 37 63 4 29 18 147 312 50 265 20 -0 346 359 321 295 337 304 212 116 25 174 156 137 120 103 96 96
355 65 344 331 54 43 47 22 35 16 29 63 58 58 52 40 59 82 93 43 356 349 4 31 346 329 40 60 300 9 4 314 298 63 38 316 84 351 261 133 132 125 111 95 80
46 41 23 5 53 50 63 77 51 35 31 38 46 38 40 49 100 68 80 44 17 18 5 16 51 288 156 176 177 30 18 313 285 264 35 314 73 21 219 126 117 126 124 112 100
47 30 38 43 57 51 40 43 75 38 48 52 40 48 52 52 40 79 56 33 13 3 28 285 83 14 22 23 340 12 21 6 316 301 25 35 73 177 164 142 136 131 129 117 115
27 53 10 23 28 44 57 48 55 37 29 28 46 37 23 52 52 48 17 6 56 4 33 8 82 40 59 80 101 47 30 26 44 355 339 10 300 237 190 171 151 144 150 144 158
66 48 61 42 37 48 26 33 50 45 20 27 60 44 45 67 39 346 352 24 22 339 37 0 92 211 90 119 83 65 33 34 55 30 250 286 347 341 173 142 152 169 190 188 194
43 106 80 28 47 52 31 42 43 36 53 41 353 50 45 41 38 56 70 77 47 3 16 22 3 329 98 16 165 51 2 21 50 23 316 4 340 312 182 191 181 194 217 220 213